VIR99B KJFK-EGLL

Flight info

Callsign VIR99B
Flight time 4h 5m
Altitude 35000
Route BETTE DCT ACK DCT VITOL DCT NANSO/N0497F370 DCT SUPRY/M085F370 DCT 4650N DCT 4840N DCT 5030N DCT 5220N DCT LIMRI/N0485F370 DCT XETBO/M085F390 DCT GAPLI/N0490F390 DCT SIDDI DCT DAWLY DCT ELRIP DCT OTMET
Aircraft A35K/H-SDE2E3GHIJ3J4J5LM1ORWXY/LB1D1

Departure

Time 2026-05-04 19:48
Airport John F. Kennedy International Airport (KJFK)

Arrival

Time 2026-05-04 23:53
Airport London Heathrow Airport (EGLL)
Time Latitude Longitude Altitude Speed Heading
2026-05-04 19:24 40.64021 -73.78061 26 ft 0 kts 247°
2026-05-04 19:34 40.64025 -73.78048 27 ft 4 kts 244°
2026-05-04 19:34 40.64039 -73.78017 31 ft 4 kts 227°
2026-05-04 19:34 40.64059 -73.77997 25 ft 4 kts 194°
2026-05-04 19:34 40.64077 -73.77997 32 ft 2 kts 151°
2026-05-04 19:35 40.64064 -73.77981 25 ft 4 kts 133°
2026-05-04 19:35 40.64044 -73.77959 25 ft 4 kts 151°
2026-05-04 19:35 40.64023 -73.77954 26 ft 1 kts 174°
2026-05-04 19:37 40.64021 -73.77953 32 ft 1 kts 173°
2026-05-04 19:37 40.64010 -73.77952 31 ft 3 kts 173°
2026-05-04 19:38 40.63987 -73.77948 30 ft 4 kts 173°
2026-05-04 19:38 40.63952 -73.77943 26 ft 6 kts 173°
2026-05-04 19:38 40.63917 -73.77916 26 ft 6 kts 130°
2026-05-04 19:38 40.63902 -73.77858 29 ft 8 kts 102°
2026-05-04 19:39 40.63877 -73.77789 32 ft 9 kts 129°
2026-05-04 19:39 40.63828 -73.77735 28 ft 0 kts 143°
2026-05-04 19:41 40.63823 -73.77730 29 ft 2 kts 143°
2026-05-04 19:41 40.63805 -73.77712 27 ft 4 kts 143°
2026-05-04 19:41 40.63779 -73.77681 29 ft 6 kts 132°
2026-05-04 19:42 40.63741 -73.77658 29 ft 6 kts 170°
2026-05-04 19:42 40.63694 -73.77649 28 ft 7 kts 160°
2026-05-04 19:42 40.63673 -73.77607 31 ft 3 kts 83°
2026-05-04 19:42 40.63695 -73.77564 31 ft 11 kts 46°
2026-05-04 19:43 40.63792 -73.77484 30 ft 18 kts 31°
2026-05-04 19:43 40.63907 -73.77394 31 ft 20 kts 30°
2026-05-04 19:43 40.64032 -73.77297 26 ft 22 kts 31°
2026-05-04 19:43 40.64166 -73.77191 27 ft 23 kts 31°
2026-05-04 19:44 40.64283 -73.77100 27 ft 19 kts 30°
2026-05-04 19:44 40.64404 -73.77010 32 ft 18 kts 21°
2026-05-04 19:44 40.64510 -73.76978 28 ft 16 kts 14°
2026-05-04 19:44 40.64617 -73.76908 31 ft 18 kts 30°
2026-05-04 19:45 40.64726 -73.76822 31 ft 19 kts 32°
2026-05-04 19:45 40.64836 -73.76733 27 ft 19 kts 31°
2026-05-04 19:45 40.64953 -73.76639 27 ft 21 kts 31°
2026-05-04 19:45 40.65067 -73.76549 27 ft 13 kts 33°
2026-05-04 19:46 40.65088 -73.76444 28 ft 13 kts 109°
2026-05-04 19:46 40.65048 -73.76364 28 ft 6 kts 153°
2026-05-04 19:46 40.65011 -73.76369 28 ft 6 kts 196°
2026-05-04 19:46 40.64973 -73.76395 28 ft 7 kts 208°
2026-05-04 19:47 40.64902 -73.76450 27 ft 30 kts 210°
2026-05-04 19:47 40.64524 -73.76744 31 ft 95 kts 211°
2026-05-04 19:47 40.63790 -73.77317 30 ft 148 kts 207°
2026-05-04 19:47 40.62849 -73.78019 569 ft 154 kts 208°
2026-05-04 19:48 40.61929 -73.78711 1359 ft 154 kts 212°
2026-05-04 19:48 40.60931 -73.79450 1747 ft 174 kts 210°
2026-05-04 19:48 40.59823 -73.80290 2014 ft 193 kts 212°
2026-05-04 19:48 40.58589 -73.81209 2343 ft 214 kts 211°
2026-05-04 19:49 40.57252 -73.82203 2791 ft 229 kts 212°
2026-05-04 19:49 40.55825 -73.83246 3298 ft 239 kts 212°
2026-05-04 19:49 40.54348 -73.84316 3917 ft 245 kts 211°
2026-05-04 19:49 40.52723 -73.85019 4624 ft 252 kts 188°
2026-05-04 19:50 40.50962 -73.84645 5262 ft 267 kts 161°
2026-05-04 19:50 40.49417 -73.83205 5851 ft 281 kts 138°
2026-05-04 19:50 40.48107 -73.81238 6423 ft 291 kts 131°
2026-05-04 19:50 40.47190 -73.78834 7027 ft 299 kts 105°
2026-05-04 19:51 40.46962 -73.76112 7729 ft 301 kts 90°
2026-05-04 19:51 40.47044 -73.73355 8423 ft 304 kts 82°
2026-05-04 19:51 40.47421 -73.70624 9132 ft 305 kts 76°
2026-05-04 19:51 40.47898 -73.67889 9853 ft 308 kts 75°
2026-05-04 19:52 40.48392 -73.65118 10375 ft 318 kts 75°
2026-05-04 19:52 40.48901 -73.62222 10674 ft 334 kts 75°
2026-05-04 19:52 40.49433 -73.59172 10980 ft 350 kts 75°
2026-05-04 19:52 40.49991 -73.55993 11282 ft 365 kts 75°
2026-05-04 19:53 40.50575 -73.52678 11571 ft 379 kts 75°
2026-05-04 19:53 40.51181 -73.49253 11865 ft 392 kts 75°
2026-05-04 19:53 40.51812 -73.45712 12206 ft 402 kts 75°
2026-05-04 19:53 40.52455 -73.42111 12695 ft 408 kts 75°
2026-05-04 19:54 40.53107 -73.38460 13195 ft 413 kts 75°
2026-05-04 19:54 40.53770 -73.34762 13727 ft 417 kts 75°
2026-05-04 19:54 40.54430 -73.31086 14195 ft 420 kts 75°
2026-05-04 19:54 40.55110 -73.27288 14688 ft 423 kts 75°
2026-05-04 19:55 40.55789 -73.23509 15224 ft 426 kts 75°
2026-05-04 19:55 40.56273 -73.19653 15696 ft 430 kts 84°
2026-05-04 19:55 40.56413 -73.15710 16195 ft 434 kts 88°
2026-05-04 19:55 40.56387 -73.11727 16698 ft 437 kts 91°
2026-05-04 19:56 40.56267 -73.07723 17193 ft 440 kts 92°
2026-05-04 19:56 40.56214 -73.03687 17680 ft 443 kts 86°
2026-05-04 19:56 40.56584 -72.99668 18147 ft 444 kts 76°
2026-05-04 19:56 40.57334 -72.95719 18560 ft 446 kts 72°
2026-05-04 19:57 40.58222 -72.91866 18997 ft 448 kts 70°
2026-05-04 19:57 40.59210 -72.87969 19419 ft 450 kts 68°
2026-05-04 19:57 40.60236 -72.84072 19840 ft 452 kts 68°
2026-05-04 19:57 40.61274 -72.80152 20264 ft 455 kts 68°
2026-05-04 19:58 40.62309 -72.76213 20688 ft 457 kts 68°
2026-05-04 19:58 40.63339 -72.72245 21124 ft 459 kts 68°
2026-05-04 19:58 40.64365 -72.68248 21547 ft 462 kts 68°
2026-05-04 19:58 40.65388 -72.64231 21981 ft 465 kts 68°
2026-05-04 19:59 40.66415 -72.60181 22436 ft 467 kts 68°
2026-05-04 19:59 40.67442 -72.56119 22917 ft 468 kts 68°
2026-05-04 19:59 40.68471 -72.52040 23357 ft 471 kts 68°
2026-05-04 19:59 40.69506 -72.47936 23735 ft 473 kts 68°
2026-05-04 20:00 40.70546 -72.43807 24102 ft 476 kts 68°
2026-05-04 20:00 40.71587 -72.39667 24484 ft 478 kts 68°
2026-05-04 20:00 40.72633 -72.35497 24837 ft 480 kts 68°
2026-05-04 20:00 40.73685 -72.31301 25207 ft 482 kts 68°
2026-05-04 20:01 40.74737 -72.27096 25576 ft 485 kts 68°
2026-05-04 20:01 40.75795 -72.22858 25943 ft 488 kts 68°
2026-05-04 20:01 40.76860 -72.18590 26272 ft 491 kts 68°
2026-05-04 20:01 40.77928 -72.14299 26678 ft 493 kts 68°
2026-05-04 20:02 40.78997 -72.09993 27081 ft 495 kts 68°
2026-05-04 20:02 40.80068 -72.05670 27523 ft 497 kts 68°
2026-05-04 20:02 40.81142 -72.01329 27905 ft 499 kts 68°
2026-05-04 20:02 40.82220 -71.96963 28278 ft 502 kts 68°
2026-05-04 20:03 40.83306 -71.92562 28649 ft 505 kts 68°
2026-05-04 20:03 40.84394 -71.88143 28970 ft 508 kts 68°
2026-05-04 20:03 40.85489 -71.83684 29271 ft 512 kts 68°
2026-05-04 20:03 40.86587 -71.79207 29641 ft 514 kts 68°
2026-05-04 20:04 40.87687 -71.74708 30067 ft 514 kts 68°
2026-05-04 20:04 40.88781 -71.70220 30517 ft 513 kts 68°
2026-05-04 20:04 40.89872 -71.65735 30931 ft 512 kts 68°
2026-05-04 20:04 40.90962 -71.61253 31330 ft 512 kts 69°
2026-05-04 20:05 40.92049 -71.56772 31761 ft 511 kts 69°
2026-05-04 20:05 40.93138 -71.52279 32098 ft 512 kts 69°
2026-05-04 20:05 40.94211 -71.47846 32391 ft 513 kts 69°
2026-05-04 20:05 40.95296 -71.43350 32784 ft 513 kts 69°
2026-05-04 20:06 40.96378 -71.38861 33165 ft 512 kts 69°
2026-05-04 20:06 40.97455 -71.34378 33533 ft 512 kts 69°
2026-05-04 20:06 40.98533 -71.29887 33895 ft 511 kts 70°
2026-05-04 20:06 40.99607 -71.25400 34192 ft 512 kts 70°
2026-05-04 20:07 41.00681 -71.20910 34423 ft 513 kts 70°
2026-05-04 20:07 41.01759 -71.16394 34633 ft 514 kts 70°
2026-05-04 20:07 41.02836 -71.11872 34866 ft 516 kts 70°
2026-05-04 20:08 41.05006 -71.02739 34964 ft 524 kts 70°
2026-05-04 20:08 41.07178 -70.93545 34964 ft 523 kts 70°
2026-05-04 20:09 41.09344 -70.84345 34970 ft 523 kts 71°
2026-05-04 20:09 41.11514 -70.75095 34959 ft 526 kts 71°
2026-05-04 20:10 41.13678 -70.65829 34953 ft 526 kts 71°
2026-05-04 20:10 41.15837 -70.56552 34960 ft 526 kts 71°
2026-05-04 20:11 41.17987 -70.47271 34954 ft 528 kts 71°
2026-05-04 20:11 41.20143 -70.37931 34963 ft 530 kts 71°
2026-05-04 20:12 41.22292 -70.28574 34973 ft 530 kts 71°
2026-05-04 20:12 41.24437 -70.19201 34972 ft 530 kts 71°
2026-05-04 20:13 41.26578 -70.09808 34976 ft 533 kts 72°
2026-05-04 20:13 41.28700 -70.00431 34972 ft 533 kts 72°
2026-05-04 20:14 41.30489 -69.90872 34972 ft 533 kts 76°
2026-05-04 20:14 41.32100 -69.81238 34971 ft 535 kts 76°
2026-05-04 20:15 41.33757 -69.71568 34975 ft 537 kts 76°
2026-05-04 20:15 41.35457 -69.61879 34978 ft 537 kts 76°
2026-05-04 20:16 41.37161 -69.52203 34995 ft 537 kts 76°
2026-05-04 20:16 41.38859 -69.42510 34983 ft 538 kts 76°
2026-05-04 20:17 41.40551 -69.32787 34980 ft 539 kts 76°
2026-05-04 20:17 41.42233 -69.23059 34984 ft 539 kts 76°
2026-05-04 20:18 41.43637 -69.14905 34973 ft 540 kts 77°
2026-05-04 20:18 41.45300 -69.05192 34979 ft 542 kts 77°
2026-05-04 20:19 41.46969 -68.95392 35001 ft 542 kts 77°
2026-05-04 20:19 41.48627 -68.85599 34974 ft 541 kts 77°
2026-05-04 20:20 41.50281 -68.75786 34983 ft 543 kts 77°
2026-05-04 20:20 41.51929 -68.65946 34983 ft 544 kts 77°
2026-05-04 20:21 41.53569 -68.56099 34986 ft 544 kts 77°
2026-05-04 20:21 41.56017 -68.41301 35014 ft 545 kts 77°
2026-05-04 20:22 41.57641 -68.31409 34990 ft 545 kts 77°
2026-05-04 20:22 41.59256 -68.21516 34990 ft 545 kts 77°
2026-05-04 20:23 41.60866 -68.11605 34990 ft 547 kts 78°
2026-05-04 20:23 41.62470 -68.01667 34985 ft 547 kts 78°
2026-05-04 20:24 41.64066 -67.91716 34989 ft 547 kts 78°
2026-05-04 20:24 41.65653 -67.81768 34981 ft 547 kts 78°
2026-05-04 20:25 41.67231 -67.71818 34982 ft 547 kts 78°
2026-05-04 20:25 41.68800 -67.61864 34978 ft 547 kts 78°
2026-05-04 20:26 41.70361 -67.51903 34993 ft 547 kts 78°
2026-05-04 20:26 41.71915 -67.41927 34980 ft 549 kts 78°
2026-05-04 20:27 41.73395 -67.32373 34993 ft 549 kts 78°
2026-05-04 20:27 41.74889 -67.22659 34987 ft 549 kts 78°
2026-05-04 20:28 41.76408 -67.12740 34989 ft 550 kts 79°
2026-05-04 20:28 41.77957 -67.02700 34982 ft 551 kts 76°
2026-05-04 20:29 41.80455 -66.93073 34989 ft 550 kts 68°
2026-05-04 20:29 41.83240 -66.83882 34993 ft 552 kts 67°
2026-05-04 20:30 41.86103 -66.74606 34988 ft 553 kts 67°
2026-05-04 20:30 41.89026 -66.65066 34980 ft 553 kts 67°
2026-05-04 20:31 41.91831 -66.55826 34980 ft 553 kts 67°
2026-05-04 20:31 41.94729 -66.46230 34993 ft 556 kts 67°
2026-05-04 20:32 41.97625 -66.36604 34980 ft 555 kts 67°
2026-05-04 20:32 42.00508 -66.26989 34978 ft 555 kts 68°
2026-05-04 20:33 42.03390 -66.17345 34970 ft 558 kts 68°
2026-05-04 20:33 42.06281 -66.07633 34987 ft 559 kts 68°
2026-05-04 20:34 42.09159 -65.97926 34976 ft 557 kts 68°
2026-05-04 20:34 42.12023 -65.88234 34963 ft 558 kts 68°
2026-05-04 20:35 42.14895 -65.78477 34967 ft 561 kts 68°
2026-05-04 20:35 42.17761 -65.68703 34970 ft 561 kts 68°
2026-05-04 20:36 42.20620 -65.58913 34961 ft 561 kts 69°
2026-05-04 20:36 42.23479 -65.49087 34978 ft 563 kts 69°
2026-05-04 20:37 42.26339 -65.39222 34983 ft 564 kts 69°
2026-05-04 20:37 42.29184 -65.29369 34972 ft 563 kts 69°
2026-05-04 20:38 42.32002 -65.19573 34972 ft 563 kts 69°
2026-05-04 20:38 42.34837 -65.09678 34966 ft 565 kts 69°
2026-05-04 20:39 42.37669 -64.99755 34981 ft 565 kts 69°
2026-05-04 20:39 42.40489 -64.89836 34966 ft 565 kts 69°
2026-05-04 20:40 42.43299 -64.79913 34963 ft 565 kts 69°
2026-05-04 20:40 42.46100 -64.69981 34952 ft 565 kts 69°
2026-05-04 20:41 42.48905 -64.59999 34968 ft 567 kts 69°
2026-05-04 20:41 42.51704 -64.49994 34958 ft 567 kts 69°
2026-05-04 20:42 42.54494 -64.39984 34954 ft 567 kts 69°
2026-05-04 20:42 42.57271 -64.29979 34955 ft 567 kts 70°
2026-05-04 20:43 42.60024 -64.20022 34959 ft 567 kts 70°
2026-05-04 20:43 42.62785 -64.09993 34950 ft 566 kts 70°
2026-05-04 20:44 42.65534 -63.99969 34952 ft 566 kts 70°
2026-05-04 20:44 42.68274 -63.89938 34951 ft 566 kts 70°
2026-05-04 20:45 42.71003 -63.79907 34954 ft 566 kts 70°
2026-05-04 20:45 42.73721 -63.69872 34947 ft 566 kts 70°
2026-05-04 20:46 42.76417 -63.59880 34947 ft 567 kts 70°
2026-05-04 20:46 42.79133 -63.49770 34948 ft 569 kts 70°
2026-05-04 20:47 42.81844 -63.39640 34942 ft 569 kts 70°
2026-05-04 20:47 42.84542 -63.29513 34942 ft 569 kts 70°
2026-05-04 20:48 42.87233 -63.19372 34948 ft 569 kts 70°
2026-05-04 20:48 42.89913 -63.09229 34947 ft 569 kts 70°
2026-05-04 20:49 42.92577 -62.99104 34944 ft 572 kts 71°
2026-05-04 20:49 42.95257 -62.88876 34939 ft 572 kts 71°
2026-05-04 20:50 42.97925 -62.78647 34935 ft 572 kts 71°
2026-05-04 20:50 43.00587 -62.68400 34940 ft 572 kts 71°
2026-05-04 20:51 43.03241 -62.58141 34938 ft 572 kts 71°
2026-05-04 20:51 43.05890 -62.47854 34932 ft 574 kts 71°
2026-05-04 20:52 43.08535 -62.37540 34936 ft 574 kts 71°
2026-05-04 20:52 43.11148 -62.27304 34935 ft 574 kts 71°
2026-05-04 20:53 43.13772 -62.16981 34927 ft 573 kts 71°
2026-05-04 20:53 43.16383 -62.06661 34930 ft 573 kts 71°
2026-05-04 20:54 43.18984 -61.96340 34922 ft 575 kts 71°
2026-05-04 20:54 43.21587 -61.85963 34929 ft 576 kts 71°
2026-05-04 20:55 43.24183 -61.75567 34929 ft 576 kts 71°
2026-05-04 20:55 43.26766 -61.65177 34931 ft 576 kts 71°
2026-05-04 20:56 43.29342 -61.54768 34941 ft 576 kts 71°
2026-05-04 20:56 43.31905 -61.44366 34906 ft 575 kts 72°
2026-05-04 20:57 43.34461 -61.33943 34928 ft 577 kts 72°
2026-05-04 20:57 43.37017 -61.23474 34925 ft 578 kts 72°
2026-05-04 20:58 43.39561 -61.13004 34939 ft 577 kts 72°
2026-05-04 20:58 43.42093 -61.02540 34921 ft 576 kts 72°
2026-05-04 20:59 43.44615 -60.92066 34921 ft 576 kts 72°
2026-05-04 20:59 43.47128 -60.81582 34912 ft 579 kts 72°
2026-05-04 21:00 43.49640 -60.71048 34920 ft 579 kts 72°
2026-05-04 21:00 43.52143 -60.60505 34912 ft 578 kts 72°
2026-05-04 21:01 43.54618 -60.50038 34901 ft 578 kts 72°
2026-05-04 21:01 43.57099 -60.39494 34895 ft 578 kts 72°
2026-05-04 21:02 43.59567 -60.28952 34891 ft 578 kts 72°
2026-05-04 21:02 43.62030 -60.18383 34892 ft 579 kts 72°
2026-05-04 21:03 43.64486 -60.07788 34887 ft 579 kts 73°
2026-05-04 21:03 43.66931 -59.97196 34891 ft 579 kts 73°
2026-05-04 21:04 43.69364 -59.86600 34889 ft 578 kts 73°
2026-05-04 21:04 43.71784 -59.76013 34850 ft 577 kts 73°
2026-05-04 21:05 43.73790 -59.67198 34883 ft 580 kts 73°
2026-05-04 21:05 43.76205 -59.56539 34895 ft 581 kts 73°
2026-05-04 21:06 43.78607 -59.45882 34888 ft 579 kts 73°
2026-05-04 21:06 43.80992 -59.35248 34894 ft 578 kts 73°
2026-05-04 21:07 43.83368 -59.24603 34894 ft 578 kts 73°
2026-05-04 21:07 43.85733 -59.13959 34886 ft 579 kts 73°
2026-05-04 21:08 43.88096 -59.03263 34900 ft 580 kts 73°
2026-05-04 21:08 43.90447 -58.92572 34893 ft 580 kts 73°
2026-05-04 21:09 43.92787 -58.81880 34898 ft 580 kts 73°
2026-05-04 21:09 43.95120 -58.71160 34911 ft 580 kts 73°
2026-05-04 21:10 43.97438 -58.60456 34887 ft 579 kts 74°
2026-05-04 21:10 43.99744 -58.49753 34887 ft 578 kts 74°
2026-05-04 21:11 44.02041 -58.39041 34888 ft 578 kts 74°
2026-05-04 21:11 44.04325 -58.28330 34900 ft 578 kts 74°
2026-05-04 21:12 44.06581 -58.17699 34889 ft 576 kts 74°
2026-05-04 21:12 44.08835 -58.07020 34887 ft 576 kts 74°
2026-05-04 21:13 44.11079 -57.96333 34870 ft 577 kts 74°
2026-05-04 21:13 44.13325 -57.85582 34885 ft 580 kts 75°
2026-05-04 21:14 44.15566 -57.74799 34891 ft 580 kts 75°
2026-05-04 21:14 44.17799 -57.63998 34892 ft 580 kts 75°
2026-05-04 21:15 44.20019 -57.53201 34895 ft 580 kts 75°
2026-05-04 21:15 44.22231 -57.42383 34895 ft 579 kts 75°
2026-05-04 21:16 44.24428 -57.31587 34886 ft 580 kts 75°
2026-05-04 21:16 44.26623 -57.20739 34902 ft 581 kts 75°
2026-05-04 21:17 44.28807 -57.09885 34891 ft 581 kts 75°
2026-05-04 21:17 44.30980 -56.99024 34892 ft 581 kts 75°
2026-05-04 21:18 44.33144 -56.88155 34886 ft 581 kts 75°
2026-05-04 21:18 44.35297 -56.77276 34881 ft 582 kts 76°
2026-05-04 21:19 44.37446 -56.66357 34893 ft 584 kts 76°
2026-05-04 21:19 44.39591 -56.55402 34894 ft 583 kts 76°
2026-05-04 21:20 44.41720 -56.44466 34888 ft 582 kts 76°
2026-05-04 21:20 44.43836 -56.33532 34888 ft 582 kts 76°
2026-05-04 21:21 44.45944 -56.22583 34893 ft 582 kts 76°
2026-05-04 21:21 44.48038 -56.11634 34974 ft 583 kts 76°
2026-05-04 21:22 44.49217 -56.06214 35363 ft 580 kts 70°
2026-05-04 21:22 44.50579 -56.00922 35830 ft 575 kts 70°
2026-05-04 21:22 44.51963 -55.95682 36203 ft 573 kts 70°
2026-05-04 21:22 44.53363 -55.90463 36513 ft 572 kts 70°
2026-05-04 21:23 44.54770 -55.85254 36812 ft 571 kts 70°
2026-05-04 21:23 44.56179 -55.80029 36892 ft 575 kts 70°
2026-05-04 21:23 44.59003 -55.69507 36888 ft 576 kts 70°
2026-05-04 21:24 44.61804 -55.58989 36882 ft 575 kts 70°
2026-05-04 21:24 44.64591 -55.48459 36885 ft 576 kts 70°
2026-05-04 21:25 44.67358 -55.37959 36894 ft 577 kts 70°
2026-05-04 21:25 44.70132 -55.27387 36888 ft 576 kts 70°
2026-05-04 21:26 44.72896 -55.16809 36881 ft 576 kts 70°
2026-05-04 21:26 44.75649 -55.06226 36882 ft 576 kts 70°
2026-05-04 21:27 44.78391 -54.95633 36884 ft 575 kts 70°
2026-05-04 21:27 44.81120 -54.85045 36888 ft 575 kts 71°
2026-05-04 21:28 44.83839 -54.74449 36882 ft 576 kts 71°
2026-05-04 21:28 44.86555 -54.63815 36876 ft 577 kts 71°
2026-05-04 21:29 44.89258 -54.53186 36894 ft 576 kts 71°
2026-05-04 21:29 44.91948 -54.42553 36887 ft 576 kts 71°
2026-05-04 21:30 44.94631 -54.31903 36893 ft 576 kts 71°
2026-05-04 21:30 44.97305 -54.21240 36890 ft 575 kts 71°
2026-05-04 21:31 45.01285 -54.05274 36870 ft 574 kts 71°
2026-05-04 21:32 45.03930 -53.94601 36885 ft 576 kts 71°
2026-05-04 21:32 45.06574 -53.83883 36885 ft 577 kts 72°
2026-05-04 21:33 45.09207 -53.73162 36894 ft 577 kts 72°
2026-05-04 21:33 45.11813 -53.62497 36898 ft 577 kts 72°
2026-05-04 21:34 45.14425 -53.51758 36897 ft 577 kts 72°
2026-05-04 21:34 45.17024 -53.41022 36894 ft 575 kts 72°
2026-05-04 21:35 45.19604 -53.30309 36867 ft 575 kts 72°
2026-05-04 21:35 45.22184 -53.19549 36897 ft 576 kts 72°
2026-05-04 21:36 45.24755 -53.08773 36900 ft 577 kts 72°
2026-05-04 21:36 45.27313 -52.97998 36897 ft 576 kts 72°
2026-05-04 21:37 45.29862 -52.87212 36900 ft 576 kts 72°
2026-05-04 21:37 45.32401 -52.76414 36900 ft 576 kts 72°
2026-05-04 21:38 45.34929 -52.65608 36895 ft 575 kts 73°
2026-05-04 21:38 45.37437 -52.54837 36876 ft 573 kts 73°
2026-05-04 21:39 45.39934 -52.44057 36902 ft 575 kts 73°
2026-05-04 21:39 45.42428 -52.33238 36908 ft 575 kts 73°
2026-05-04 21:40 45.44911 -52.22415 36900 ft 574 kts 73°
2026-05-04 21:40 45.47376 -52.11613 36900 ft 573 kts 73°
2026-05-04 21:41 45.49811 -52.00891 36896 ft 573 kts 73°
2026-05-04 21:41 45.52417 -51.90156 36902 ft 573 kts 70°
2026-05-04 21:42 45.55248 -51.79547 36905 ft 571 kts 70°
2026-05-04 21:42 45.58054 -51.68948 36900 ft 571 kts 71°
2026-05-04 21:43 45.60806 -51.58313 36906 ft 571 kts 71°
2026-05-04 21:43 45.63528 -51.47664 36903 ft 569 kts 71°
2026-05-04 21:44 45.66230 -51.37035 36905 ft 568 kts 71°
2026-05-04 21:44 45.68920 -51.26414 36905 ft 568 kts 71°
2026-05-04 21:45 45.71606 -51.15768 36910 ft 568 kts 71°
2026-05-04 21:45 45.74274 -51.05144 36905 ft 566 kts 72°
2026-05-04 21:46 45.76928 -50.94525 36871 ft 566 kts 72°
2026-05-04 21:46 45.79575 -50.83887 36909 ft 569 kts 72°
2026-05-04 21:47 45.82224 -50.73190 36911 ft 569 kts 72°
2026-05-04 21:47 45.84838 -50.62585 36911 ft 568 kts 72°
2026-05-04 21:48 45.87457 -50.51907 36914 ft 568 kts 72°
2026-05-04 21:48 45.90068 -50.41214 36914 ft 568 kts 72°
2026-05-04 21:49 45.92666 -50.30522 36914 ft 566 kts 72°
2026-05-04 21:49 45.95248 -50.19843 36919 ft 566 kts 73°
2026-05-04 21:50 45.97819 -50.09161 36877 ft 566 kts 73°
2026-05-04 21:50 46.00384 -49.98451 36918 ft 567 kts 73°
2026-05-04 21:51 46.03042 -49.87754 36922 ft 568 kts 72°
2026-05-04 21:51 46.05752 -49.77061 36921 ft 568 kts 72°
2026-05-04 21:52 46.08439 -49.66361 36924 ft 568 kts 72°
2026-05-04 21:52 46.11102 -49.55647 36929 ft 567 kts 72°
2026-05-04 21:53 46.13742 -49.44946 36931 ft 566 kts 72°
2026-05-04 21:53 46.16369 -49.34251 36930 ft 566 kts 72°
2026-05-04 21:54 46.18546 -49.25352 36926 ft 566 kts 72°
2026-05-04 21:54 46.21153 -49.14650 36933 ft 565 kts 73°
2026-05-04 21:55 46.23755 -49.03919 36933 ft 566 kts 73°
2026-05-04 21:55 46.26346 -48.93178 36929 ft 566 kts 73°
2026-05-04 21:56 46.28927 -48.82432 36940 ft 566 kts 73°
2026-05-04 21:56 46.31493 -48.71692 36948 ft 565 kts 73°
2026-05-04 21:57 46.34048 -48.60947 36943 ft 564 kts 73°
2026-05-04 21:57 46.36592 -48.50195 36949 ft 564 kts 73°
2026-05-04 21:58 46.39126 -48.39434 36951 ft 563 kts 74°
2026-05-04 21:58 46.41638 -48.28714 36949 ft 562 kts 74°
2026-05-04 21:59 46.44125 -48.18043 36950 ft 565 kts 74°
2026-05-04 21:59 46.46632 -48.07235 36953 ft 566 kts 74°
2026-05-04 22:00 46.49094 -47.96577 36945 ft 565 kts 75°
2026-05-04 22:00 46.51613 -47.85613 36960 ft 564 kts 75°
2026-05-04 22:01 46.54089 -47.74779 36963 ft 565 kts 75°
2026-05-04 22:01 46.56549 -47.63964 36960 ft 564 kts 75°
2026-05-04 22:02 46.59001 -47.53128 36964 ft 563 kts 75°
2026-05-04 22:02 46.61435 -47.42316 36965 ft 563 kts 75°
2026-05-04 22:03 46.63861 -47.31481 36950 ft 563 kts 75°
2026-05-04 22:03 46.66284 -47.20603 36969 ft 566 kts 76°
2026-05-04 22:04 46.68702 -47.09702 36974 ft 565 kts 76°
2026-05-04 22:04 46.71108 -46.98794 36974 ft 565 kts 76°
2026-05-04 22:05 46.73500 -46.87889 36979 ft 565 kts 76°
2026-05-04 22:05 46.75867 -46.77046 36978 ft 563 kts 76°
2026-05-04 22:06 46.78245 -46.66096 36979 ft 562 kts 76°
2026-05-04 22:06 46.80576 -46.55300 36985 ft 562 kts 76°
2026-05-04 22:07 46.82915 -46.44409 36969 ft 562 kts 77°
2026-05-04 22:07 46.85244 -46.33512 36985 ft 562 kts 76°
2026-05-04 22:08 46.87564 -46.22593 36985 ft 563 kts 77°
2026-05-04 22:08 46.89877 -46.11657 36993 ft 563 kts 77°
2026-05-04 22:09 46.92179 -46.00710 36993 ft 563 kts 77°
2026-05-04 22:09 46.94469 -45.89761 36990 ft 563 kts 77°
2026-05-04 22:10 46.96748 -45.78806 36996 ft 563 kts 77°
2026-05-04 22:10 46.99020 -45.67827 36996 ft 563 kts 77°
2026-05-04 22:11 47.01276 -45.56868 36993 ft 560 kts 77°
2026-05-04 22:11 47.03510 -45.45956 36996 ft 558 kts 77°
2026-05-04 22:12 47.05729 -45.35050 36990 ft 558 kts 77°
2026-05-04 22:12 47.07921 -45.24217 36989 ft 558 kts 77°
2026-05-04 22:13 47.10117 -45.13306 36999 ft 556 kts 77°
2026-05-04 22:13 47.12295 -45.02431 36999 ft 555 kts 78°
2026-05-04 22:14 47.14458 -44.91563 37000 ft 555 kts 78°
2026-05-04 22:14 47.16612 -44.80683 37000 ft 555 kts 78°
2026-05-04 22:15 47.18750 -44.69826 36999 ft 550 kts 78°
2026-05-04 22:15 47.20863 -44.59038 36999 ft 549 kts 78°
2026-05-04 22:16 47.22961 -44.48254 36999 ft 548 kts 78°
2026-05-04 22:16 47.25049 -44.37456 36981 ft 548 kts 78°
2026-05-04 22:17 47.27120 -44.26704 36997 ft 544 kts 78°
2026-05-04 22:17 47.29175 -44.15975 36998 ft 544 kts 78°
2026-05-04 22:18 47.31213 -44.05263 36998 ft 543 kts 78°
2026-05-04 22:18 47.33244 -43.94526 36980 ft 543 kts 78°
2026-05-04 22:19 47.35257 -43.83837 37008 ft 540 kts 78°
2026-05-04 22:19 47.37253 -43.73170 37008 ft 539 kts 79°
2026-05-04 22:20 47.39235 -43.62508 36991 ft 539 kts 79°
2026-05-04 22:20 47.41210 -43.51830 36999 ft 539 kts 79°
2026-05-04 22:21 47.43164 -43.41207 37005 ft 534 kts 78°
2026-05-04 22:21 47.45098 -43.30635 37001 ft 533 kts 79°
2026-05-04 22:22 47.47017 -43.20071 37001 ft 533 kts 79°
2026-05-04 22:22 47.48915 -43.09568 36993 ft 532 kts 79°
2026-05-04 22:23 47.50810 -42.99029 37003 ft 529 kts 79°
2026-05-04 22:23 47.52687 -42.88520 37004 ft 528 kts 79°
2026-05-04 22:24 47.54554 -42.78006 37002 ft 528 kts 79°
2026-05-04 22:24 47.56412 -42.67480 36999 ft 528 kts 79°
2026-05-04 22:25 47.58255 -42.56982 37016 ft 526 kts 79°
2026-05-04 22:25 47.60085 -42.46496 37015 ft 525 kts 79°
2026-05-04 22:26 47.61901 -42.36025 37016 ft 525 kts 79°
2026-05-04 22:26 47.63710 -42.25532 37020 ft 525 kts 79°
2026-05-04 22:27 47.65505 -42.15068 37035 ft 523 kts 79°
2026-05-04 22:27 47.67287 -42.04612 37040 ft 522 kts 80°
2026-05-04 22:28 47.69055 -41.94164 37039 ft 522 kts 80°
2026-05-04 22:28 47.70815 -41.83709 37056 ft 522 kts 80°
2026-05-04 22:29 47.72565 -41.73249 37064 ft 522 kts 80°
2026-05-04 22:29 47.74309 -41.62764 37062 ft 522 kts 80°
2026-05-04 22:30 47.76041 -41.52286 37063 ft 522 kts 80°
2026-05-04 22:30 47.77764 -41.41795 37074 ft 522 kts 80°
2026-05-04 22:31 47.79474 -41.31318 37083 ft 519 kts 80°
2026-05-04 22:31 47.81165 -41.20901 37089 ft 518 kts 81°
2026-05-04 22:32 47.82845 -41.10474 37092 ft 518 kts 81°
2026-05-04 22:32 47.84515 -41.00049 37108 ft 518 kts 81°
2026-05-04 22:33 47.86173 -40.89633 37107 ft 516 kts 81°
2026-05-04 22:33 47.87816 -40.79256 37116 ft 514 kts 81°
2026-05-04 22:34 47.89445 -40.68884 37122 ft 514 kts 81°
2026-05-04 22:34 47.91065 -40.58509 37129 ft 514 kts 81°
2026-05-04 22:35 47.92676 -40.48124 37134 ft 514 kts 81°
2026-05-04 22:35 47.94283 -40.37702 37139 ft 517 kts 81°
2026-05-04 22:36 47.95886 -40.27240 37145 ft 518 kts 81°
2026-05-04 22:36 47.97481 -40.16766 37160 ft 518 kts 81°
2026-05-04 22:37 47.99065 -40.06289 37152 ft 518 kts 81°
2026-05-04 22:37 48.01056 -39.95995 37169 ft 522 kts 73°
2026-05-04 22:38 48.03522 -39.85937 37167 ft 523 kts 72°
2026-05-04 22:38 48.11020 -39.56017 37187 ft 524 kts 71°
2026-05-04 22:39 48.21076 -39.15069 37206 ft 522 kts 71°
2026-05-04 22:39 48.30927 -38.74203 37223 ft 520 kts 70°
2026-05-04 22:40 48.40621 -38.33238 37256 ft 520 kts 70°
2026-05-04 22:40 48.50193 -37.92008 37281 ft 522 kts 70°
2026-05-04 22:41 48.59617 -37.50626 37277 ft 522 kts 71°
2026-05-04 22:41 48.68907 -37.09023 37282 ft 522 kts 70°
2026-05-04 22:42 48.78071 -36.67160 37309 ft 524 kts 70°
2026-05-04 22:42 48.85585 -36.32178 37319 ft 526 kts 70°
2026-05-04 22:43 48.94509 -35.89842 37335 ft 526 kts 69°
2026-05-04 22:43 49.03290 -35.47296 37357 ft 525 kts 68°
2026-05-04 22:44 49.11890 -35.04717 37365 ft 525 kts 68°
2026-05-04 22:44 49.20315 -34.62081 37382 ft 523 kts 68°
2026-05-04 22:45 49.28563 -34.19404 37387 ft 521 kts 68°
2026-05-04 22:45 49.40525 -33.55750 37404 ft 513 kts 68°
2026-05-04 22:46 49.48245 -33.13482 37411 ft 514 kts 68°
2026-05-04 22:46 49.55780 -32.71242 37412 ft 512 kts 68°
2026-05-04 22:47 49.63164 -32.28858 37422 ft 512 kts 68°
2026-05-04 22:47 49.70370 -31.86481 37425 ft 513 kts 69°
2026-05-04 22:48 49.77464 -31.43710 37428 ft 514 kts 69°
2026-05-04 22:48 49.84416 -31.00728 37429 ft 516 kts 69°
2026-05-04 22:49 49.90900 -30.59602 37439 ft 518 kts 70°
2026-05-04 22:49 49.97591 -30.16038 37439 ft 519 kts 71°
2026-05-04 22:50 50.06556 -29.73883 37453 ft 511 kts 63°
2026-05-04 22:50 50.16821 -29.32532 37450 ft 511 kts 64°
2026-05-04 22:51 50.26981 -28.90726 37451 ft 512 kts 65°
2026-05-04 22:51 50.36867 -28.49274 37452 ft 511 kts 66°
2026-05-04 22:52 50.46617 -28.07598 37451 ft 511 kts 67°
2026-05-04 22:52 50.56256 -27.65579 37452 ft 511 kts 68°
2026-05-04 22:53 50.65744 -27.23388 37449 ft 510 kts 69°
2026-05-04 22:53 50.75065 -26.81091 37458 ft 510 kts 69°
2026-05-04 22:54 50.84228 -26.38642 37442 ft 510 kts 69°
2026-05-04 22:54 50.93238 -25.96021 37441 ft 510 kts 70°
2026-05-04 22:55 51.02084 -25.53277 37438 ft 509 kts 70°
2026-05-04 22:55 51.10750 -25.10490 37430 ft 507 kts 70°
2026-05-04 22:56 51.19251 -24.67586 37426 ft 508 kts 71°
2026-05-04 22:56 51.27583 -24.24582 37428 ft 506 kts 71°
2026-05-04 22:57 51.35718 -23.81630 37419 ft 504 kts 71°
2026-05-04 22:57 51.43633 -23.38875 37411 ft 503 kts 72°
2026-05-04 22:58 51.51425 -22.95781 37408 ft 502 kts 72°
2026-05-04 22:58 51.59052 -22.52581 37398 ft 501 kts 72°
2026-05-04 22:59 51.66490 -22.09416 37387 ft 500 kts 73°
2026-05-04 22:59 51.73776 -21.66063 37381 ft 500 kts 73°
2026-05-04 23:00 51.80889 -21.22661 37370 ft 499 kts 73°
2026-05-04 23:00 51.87816 -20.79274 37363 ft 497 kts 73°
2026-05-04 23:01 51.94557 -20.35939 37349 ft 496 kts 74°
2026-05-04 23:01 52.00175 -19.92115 37350 ft 499 kts 85°
2026-05-04 23:02 52.01008 -19.47123 37331 ft 499 kts 86°
2026-05-04 23:02 52.01675 -19.02115 37331 ft 498 kts 87°
2026-05-04 23:03 52.02168 -18.57179 37317 ft 498 kts 87°
2026-05-04 23:03 52.02491 -18.12171 37301 ft 499 kts 87°
2026-05-04 23:04 52.02642 -17.67071 37286 ft 500 kts 88°
2026-05-04 23:04 52.02621 -17.21966 37276 ft 500 kts 89°
2026-05-04 23:05 52.02427 -16.76834 37266 ft 499 kts 89°
2026-05-04 23:05 52.02063 -16.31780 37260 ft 498 kts 89°
2026-05-04 23:06 52.01527 -15.86847 37249 ft 498 kts 89°
2026-05-04 23:06 52.00821 -15.41920 37242 ft 498 kts 90°
2026-05-04 23:07 51.99955 -14.97038 37230 ft 497 kts 89°
2026-05-04 23:07 52.00118 -14.52168 37222 ft 497 kts 88°
2026-05-04 23:08 52.00018 -14.07573 37200 ft 498 kts 91°
2026-05-04 23:08 51.96030 -13.86256 38487 ft 497 kts 114°
2026-05-04 23:08 51.89978 -13.66115 39200 ft 499 kts 115°
2026-05-04 23:09 51.77790 -13.25709 39200 ft 500 kts 115°
2026-05-04 23:09 51.65531 -12.85665 39198 ft 498 kts 115°
2026-05-04 23:10 51.53135 -12.45833 39189 ft 497 kts 115°
2026-05-04 23:10 51.40629 -12.06294 39185 ft 497 kts 115°
2026-05-04 23:11 51.28048 -11.67149 39174 ft 495 kts 115°
2026-05-04 23:11 51.15364 -11.28302 39169 ft 492 kts 115°
2026-05-04 23:12 51.02597 -10.89800 39159 ft 491 kts 116°
2026-05-04 23:12 50.89738 -10.51614 39144 ft 490 kts 116°
2026-05-04 23:13 50.76767 -10.13674 39138 ft 490 kts 116°
2026-05-04 23:13 50.63687 -9.75977 39127 ft 490 kts 116°
2026-05-04 23:14 50.53730 -9.47660 39122 ft 490 kts 117°
2026-05-04 23:14 50.40398 -9.10219 39111 ft 492 kts 117°
2026-05-04 23:15 50.26942 -8.72979 39105 ft 492 kts 118°
2026-05-04 23:15 50.13357 -8.35925 39094 ft 491 kts 118°
2026-05-04 23:16 50.06384 -8.17108 39089 ft 492 kts 118°
2026-05-04 23:16 50.03121 -8.07773 39090 ft 490 kts 111°
2026-05-04 23:17 50.01408 -7.97622 39083 ft 485 kts 93°
2026-05-04 23:17 50.01833 -7.87287 39085 ft 481 kts 78°
2026-05-04 23:18 50.03250 -7.77121 39085 ft 481 kts 75°
2026-05-04 23:18 50.04781 -7.66988 39081 ft 482 kts 76°
2026-05-04 23:19 50.06280 -7.56842 39078 ft 481 kts 76°
2026-05-04 23:19 50.07742 -7.46679 39075 ft 481 kts 76°
2026-05-04 23:20 50.12522 -7.12686 39070 ft 481 kts 77°
2026-05-04 23:20 50.18126 -6.71861 39065 ft 482 kts 77°
2026-05-04 23:21 50.23594 -6.30884 39057 ft 483 kts 78°
2026-05-04 23:21 50.28929 -5.89722 39054 ft 484 kts 78°
2026-05-04 23:22 50.34130 -5.48381 39037 ft 485 kts 79°
2026-05-04 23:22 50.39197 -5.06835 39049 ft 486 kts 79°
2026-05-04 23:23 50.44063 -4.65663 39033 ft 486 kts 79°
2026-05-04 23:23 50.47292 -4.37585 39031 ft 487 kts 80°
2026-05-04 23:24 50.48493 -4.26986 39031 ft 487 kts 80°
2026-05-04 23:24 50.49668 -4.16518 39031 ft 487 kts 81°
2026-05-04 23:25 50.50833 -4.06055 38729 ft 485 kts 81°
2026-05-04 23:25 50.51410 -4.00842 38474 ft 484 kts 81°
2026-05-04 23:25 50.51984 -3.95634 38022 ft 483 kts 81°
2026-05-04 23:26 50.52563 -3.90427 37294 ft 483 kts 80°
2026-05-04 23:26 50.53143 -3.85259 36702 ft 479 kts 80°
2026-05-04 23:26 50.53721 -3.80108 36081 ft 477 kts 80°
2026-05-04 23:26 50.54294 -3.74985 35445 ft 475 kts 81°
2026-05-04 23:27 50.54863 -3.69877 34802 ft 474 kts 81°
2026-05-04 23:27 50.55236 -3.66501 34343 ft 474 kts 81°
2026-05-04 23:27 50.55798 -3.61408 33604 ft 473 kts 81°
2026-05-04 23:27 50.56358 -3.56310 32748 ft 474 kts 81°
2026-05-04 23:28 50.56917 -3.51198 31827 ft 476 kts 82°
2026-05-04 23:28 50.57478 -3.46042 30911 ft 479 kts 82°
2026-05-04 23:28 50.58250 -3.39191 29644 ft 483 kts 82°
2026-05-04 23:28 50.58660 -3.35676 29029 ft 482 kts 82°
2026-05-04 23:29 50.59466 -3.28856 28193 ft 476 kts 82°
2026-05-04 23:29 50.59874 -3.25400 27962 ft 475 kts 82°
2026-05-04 23:29 50.60473 -3.20290 27688 ft 475 kts 82°
2026-05-04 23:29 50.61065 -3.15179 27414 ft 473 kts 82°
2026-05-04 23:30 50.61649 -3.10105 27146 ft 471 kts 82°
2026-05-04 23:30 50.62229 -3.05042 27026 ft 469 kts 82°
2026-05-04 23:30 50.62804 -2.99989 27021 ft 468 kts 82°
2026-05-04 23:30 50.63376 -2.94951 27022 ft 467 kts 82°
2026-05-04 23:31 50.63944 -2.89904 27022 ft 467 kts 82°
2026-05-04 23:31 50.64509 -2.84869 27022 ft 467 kts 82°
2026-05-04 23:31 50.65072 -2.79832 27024 ft 467 kts 82°
2026-05-04 23:31 50.65634 -2.74786 27018 ft 469 kts 83°
2026-05-04 23:32 50.66209 -2.69715 27018 ft 471 kts 81°
2026-05-04 23:32 50.67046 -2.64712 27028 ft 474 kts 76°
2026-05-04 23:32 50.68042 -2.59756 27024 ft 474 kts 75°
2026-05-04 23:32 50.69061 -2.54815 27025 ft 474 kts 75°
2026-05-04 23:33 50.70088 -2.49863 27025 ft 474 kts 75°
2026-05-04 23:33 50.71116 -2.44916 27025 ft 474 kts 75°
2026-05-04 23:33 50.72141 -2.39982 26806 ft 473 kts 75°
2026-05-04 23:33 50.73163 -2.35056 26407 ft 471 kts 75°
2026-05-04 23:34 50.74181 -2.30140 25648 ft 470 kts 75°
2026-05-04 23:34 50.75189 -2.25262 25043 ft 466 kts 74°
2026-05-04 23:34 50.76188 -2.20418 24465 ft 461 kts 74°
2026-05-04 23:34 50.77173 -2.15630 23878 ft 457 kts 74°
2026-05-04 23:35 50.78150 -2.10866 23229 ft 453 kts 74°
2026-05-04 23:35 50.79113 -2.06160 22580 ft 448 kts 74°
2026-05-04 23:35 50.80062 -2.01512 21977 ft 442 kts 74°
2026-05-04 23:35 50.80998 -1.96916 21351 ft 437 kts 74°
2026-05-04 23:36 50.81921 -1.92375 20742 ft 431 kts 74°
2026-05-04 23:36 50.82831 -1.87884 20140 ft 426 kts 74°
2026-05-04 23:36 50.83730 -1.83441 19505 ft 422 kts 73°
2026-05-04 23:36 50.84617 -1.79044 18921 ft 417 kts 73°
2026-05-04 23:37 50.85490 -1.74705 18343 ft 412 kts 73°
2026-05-04 23:37 50.86353 -1.70411 17690 ft 408 kts 73°
2026-05-04 23:37 50.87209 -1.66144 16959 ft 405 kts 73°
2026-05-04 23:37 50.88056 -1.61914 16351 ft 401 kts 73°
2026-05-04 23:38 50.88894 -1.57716 16073 ft 399 kts 73°
2026-05-04 23:38 50.89731 -1.53514 16019 ft 400 kts 73°
2026-05-04 23:38 50.90565 -1.49314 16021 ft 400 kts 73°
2026-05-04 23:38 50.91399 -1.45112 16003 ft 399 kts 73°
2026-05-04 23:39 50.92220 -1.40965 15473 ft 393 kts 73°
2026-05-04 23:39 50.93036 -1.36834 14727 ft 392 kts 73°
2026-05-04 23:39 50.93907 -1.32748 14046 ft 391 kts 68°
2026-05-04 23:39 50.95369 -1.29158 13489 ft 388 kts 48°
2026-05-04 23:40 50.97487 -1.26511 13202 ft 390 kts 33°
2026-05-04 23:40 50.99833 -1.24351 12815 ft 390 kts 31°
2026-05-04 23:40 51.02195 -1.22229 12056 ft 389 kts 30°
2026-05-04 23:40 51.04515 -1.20141 11341 ft 374 kts 30°
2026-05-04 23:41 51.06743 -1.18103 10058 ft 369 kts 30°
2026-05-04 23:41 51.08928 -1.16056 9081 ft 356 kts 30°
2026-05-04 23:41 51.10988 -1.14110 8548 ft 332 kts 30°
2026-05-04 23:41 51.12904 -1.12294 8103 ft 309 kts 30°
2026-05-04 23:42 51.14689 -1.10594 7682 ft 290 kts 30°
2026-05-04 23:42 51.16364 -1.08995 7334 ft 272 kts 30°
2026-05-04 23:42 51.17931 -1.07489 7076 ft 253 kts 31°
2026-05-04 23:42 51.19367 -1.06102 7009 ft 230 kts 30°
2026-05-04 23:43 51.20710 -1.04804 6908 ft 224 kts 30°
2026-05-04 23:43 51.22032 -1.03524 6560 ft 219 kts 30°
2026-05-04 23:43 51.23326 -1.02261 6108 ft 217 kts 31°
2026-05-04 23:43 51.24618 -1.01001 5733 ft 219 kts 30°
2026-05-04 23:44 51.25907 -0.99747 5433 ft 215 kts 31°
2026-05-04 23:44 51.27177 -0.98507 5187 ft 212 kts 30°
2026-05-04 23:44 51.28428 -0.97284 5033 ft 210 kts 31°
2026-05-04 23:44 51.29679 -0.96065 5008 ft 211 kts 30°
2026-05-04 23:45 51.30930 -0.94836 5006 ft 211 kts 30°
2026-05-04 23:45 51.32140 -0.93616 4993 ft 201 kts 30°
2026-05-04 23:45 51.33345 -0.92402 4840 ft 209 kts 31°
2026-05-04 23:45 51.34583 -0.91145 4585 ft 211 kts 31°
2026-05-04 23:46 51.35824 -0.89878 4239 ft 213 kts 31°
2026-05-04 23:46 51.37043 -0.88635 4031 ft 207 kts 31°
2026-05-04 23:46 51.38260 -0.87414 4010 ft 207 kts 30°
2026-05-04 23:46 51.39481 -0.86188 3789 ft 207 kts 31°
2026-05-04 23:47 51.40707 -0.84961 3418 ft 209 kts 30°
2026-05-04 23:47 51.41947 -0.83738 3080 ft 205 kts 31°
2026-05-04 23:47 51.43152 -0.82570 3013 ft 202 kts 30°
2026-05-04 23:47 51.44349 -0.81405 3013 ft 200 kts 32°
2026-05-04 23:48 51.45331 -0.79840 3019 ft 201 kts 55°
2026-05-04 23:48 51.46034 -0.77945 3005 ft 190 kts 60°
2026-05-04 23:48 51.46636 -0.76141 3024 ft 180 kts 60°
2026-05-04 23:48 51.47211 -0.74365 3003 ft 180 kts 62°
2026-05-04 23:49 51.47608 -0.72457 2675 ft 180 kts 79°
2026-05-04 23:49 51.47675 -0.70516 2517 ft 170 kts 88°
2026-05-04 23:49 51.47672 -0.68681 2504 ft 162 kts 88°
2026-05-04 23:49 51.47677 -0.66898 2387 ft 156 kts 87°
2026-05-04 23:50 51.47687 -0.65214 2182 ft 145 kts 88°
2026-05-04 23:50 51.47693 -0.63641 1983 ft 139 kts 87°
2026-05-04 23:50 51.47699 -0.62098 1787 ft 138 kts 87°
2026-05-04 23:50 51.47705 -0.60567 1606 ft 137 kts 87°
2026-05-04 23:51 51.47710 -0.59039 1410 ft 137 kts 87°
2026-05-04 23:51 51.47716 -0.57509 1228 ft 137 kts 87°
2026-05-04 23:51 51.47721 -0.55984 1034 ft 137 kts 87°
2026-05-04 23:51 51.47727 -0.54454 837 ft 137 kts 88°
2026-05-04 23:52 51.47732 -0.52932 658 ft 136 kts 87°
2026-05-04 23:52 51.47738 -0.51410 470 ft 136 kts 88°
2026-05-04 23:52 51.47746 -0.49890 294 ft 136 kts 87°
2026-05-04 23:52 51.47752 -0.48393 132 ft 135 kts 88°
2026-05-04 23:53 51.47756 -0.46958 97 ft 113 kts 89°
2026-05-04 23:53 51.47760 -0.45909 93 ft 75 kts 89°
2026-05-04 23:53 51.47762 -0.45285 94 ft 36 kts 90°
2026-05-04 23:53 51.47763 -0.45074 95 ft 11 kts 90°
2026-05-04 23:54 51.47756 -0.44948 97 ft 13 kts 104°
2026-05-04 23:54 51.47696 -0.44834 98 ft 15 kts 144°
2026-05-04 23:54 51.47612 -0.44759 97 ft 11 kts 125°
2026-05-04 23:54 51.47566 -0.44661 97 ft 12 kts 152°
2026-05-04 23:55 51.47509 -0.44724 95 ft 12 kts 262°
2026-05-04 23:55 51.47510 -0.44883 96 ft 16 kts 271°
2026-05-04 23:55 51.47508 -0.45313 95 ft 22 kts 270°
2026-05-04 23:56 51.47508 -0.45575 95 ft 23 kts 270°
2026-05-04 23:56 51.47516 -0.45845 92 ft 26 kts 274°
2026-05-04 23:56 51.47519 -0.46143 95 ft 28 kts 269°
2026-05-04 23:56 51.47516 -0.46463 93 ft 29 kts 269°
2026-05-04 23:57 51.47515 -0.46651 92 ft 14 kts 269°
2026-05-04 23:57 51.47486 -0.46749 97 ft 10 kts 204°
2026-05-04 23:57 51.47409 -0.46736 95 ft 13 kts 169°
2026-05-04 23:57 51.47307 -0.46726 92 ft 16 kts 179°
2026-05-04 23:58 51.47183 -0.46725 92 ft 19 kts 180°
2026-05-04 23:58 51.47080 -0.46724 95 ft 9 kts 179°
2026-05-04 23:58 51.47011 -0.46687 96 ft 12 kts 146°
2026-05-04 23:58 51.46931 -0.46596 97 ft 16 kts 145°
2026-05-04 23:59 51.46851 -0.46509 96 ft 8 kts 146°
2026-05-04 23:59 51.46824 -0.46471 97 ft 3 kts 117°
2026-05-04 23:59 51.46824 -0.46424 97 ft 5 kts 81°
2026-05-04 23:59 51.46841 -0.46369 96 ft 4 kts 57°
2026-05-05 00:00 51.46844 -0.46363 97 ft 1 kts 56°
2026-05-05 00:00 51.46846 -0.46358 97 ft 3 kts 56°
2026-05-05 00:00 51.46849 -0.46350 97 ft 0 kts 56°